Regional Weather Roundup
Issued by NWS Green Bay, WI

Home | Current Version | Previous Version | Graphics & Text | Print | Product List | Glossary Off
Versions: 1 2 3 4 5 6 7 8 9 10 11 12 13 14 15 16 17 18 19 20 21 22 23 24 25 26 27 28 29 30 31 32 33 34 35 36 37 38 39 40 41 42 43 44 45 46 47 48 49 50

000
ASUS43 KGRB 011459
RWRGRB

NORTH-CENTRAL AND NORTHEAST WISCONSIN REGIONAL WEATHER ROUNDUP
NATIONAL WEATHER SERVICE GREEN BAY WI
900 AM CST SUN FEB 01 2015

WIZ005-009-010>012-018-019-011600-
NORTH CENTRAL WISCONSIN

CITY           SKY/WX    TMP DP  RH WIND       PRES   REMARKS
IRONWOOD       CLOUDY     7   1  78 E7        30.28R WCI  -5
MANITOWISH WTR NOT AVBL
ARBOR VITAE    NOT AVBL
EAGLE RIVER    NOT AVBL
LAND O LAKES   NOT AVBL
RHINELANDER    CLOUDY     6  -2  69 NE12      30.21R WCI  -9
PHILLIPS       NOT AVBL
ANTIGO         NOT AVBL
TOMAHAWK       NOT AVBL
MERRILL        NOT AVBL
$$

WIZ013-073-011600-
NORTHEAST WISCONSIN

CITY           SKY/WX    TMP DP  RH WIND       PRES   REMARKS
IRON MOUNTAIN  CLOUDY     9   2  73 NE9       30.25S WCI  -4
MARINETTE      CLOUDY     9   3  78 NE22      30.28R WCI -11
$$

WIZ017-030-035>037-045-011600-
CENTRAL WISCONSIN

CITY           SKY/WX    TMP DP  RH WIND       PRES   REMARKS
MEDFORD        NOT AVBL
WAUSAU         CLOUDY    10   1  67 NE14G22   30.17F WCI  -6
MOSINEE        CLOUDY    10   3  72 NE14G23   30.17S WCI  -5
MARSHFIELD     CLOUDY    11   3  70 NE15      30.16F WCI  -5
WISC RAPIDS    LGT SNOW  11   5  77 NE10G20   30.18S VSB 1   WCI  -3
STEVENS POINT  NOT AVBL
WAUPACA        NOT AVBL
SHAWANO        NOT AVBL
CLINTONVILLE   NOT AVBL
$$

WIZ038-039-048-051-011600-
FOX VALLEY

CITY           SKY/WX    TMP DP  RH WIND       PRES   REMARKS
NWS GREEN BAY  LGT SNOW  11   6  81 NE32G38   30.22R WCI -12
APPLETON       LGT SNOW  12   7  79 NE17G30   30.17S WCI  -5
OSHKOSH        LGT SNOW  13   8  81 NE22G31   30.16R VSB 3/4 WCI  -6
FOND DU LAC    LGT SNOW  15  11  83 NE21      30.13S FOG     WCI  -2
$$

WIZ022-050-052-011600-
EAST CENTRAL WISCONSIN

CITY           SKY/WX    TMP DP  RH WIND       PRES   REMARKS
STURGEON BAY   CLOUDY    10   5  79 N14       30.26R WCI  -5
MANITOWOC      LGT SNOW  19  16  86 NE13G20   30.18S FOG     WCI   7
SHEBOYGAN      LGT SNOW  19  15  84 NE21G29   30.13S VSB 3/4 WCI   3
$$

LMZ563-521-522-541>543-011600-
LAKESHORE

STATION/POSITION TIME  TEMP    WIND        PRES    VSBY  WAVE
                       AIR SEA DIR/SP/G                  HT/PER
                 (UTC) (F)     (DEG/KT/KT) (MB)    (MI)  (FT/S)
SHEBOYGAN LKSHOR 1400   21      60/ 29/ 31 1021.7S
KEWAUNEE LKSHORE 1400   19      60/ 19/ 28 1022.0R
TWO RIVERS CG    1400   18                 1019.9   3 1/2
NORTHPORT PIER   1400   10      20/ 16/ 22 1026.1R
SISTER BAY LKSHO 1400    9      20/ 14/ 20   N/A
CHAMBERS ISLAND  1400    8      10/ 23/ 27 1025.4S
MENOMINEE LKSHOR 1400    9      20/ 27     1026.1R
$$


USA.gov is the U.S. government's official web portal to all federal, state and local government web resources and services.